2022/12/18 00:00:00, 3.8,-1.7
2022/12/18 00:10:00, 5.6,-2.0
2022/12/18 00:20:00, 7.1,-1.8
2022/12/18 00:30:00, 7.7,-1.9
2022/12/18 00:40:00, 8.8,-2.0
2022/12/18 00:50:00,10.4,-2.0
2022/12/18 01:00:00,11.1,-1.9
2022/12/18 01:10:00,12.4,-1.8
2022/12/18 01:20:00,14.3,-2.2
2022/12/18 01:30:00,16.3,-2.2
2022/12/18 01:40:00,17.1,-2.4
2022/12/18 01:50:00,18.1,-2.3
2022/12/18 02:00:00,18.8,-2.6
2022/12/18 02:10:00,19.1,-2.4
2022/12/18 02:20:00,19.8,-2.4
2022/12/18 02:30:00,20.3,-2.6
2022/12/18 02:40:00,21.3,-2.7
2022/12/18 02:50:00,22.4,-3.2
2022/12/18 03:00:00,22.9,-3.0
2022/12/18 03:10:00,23.4,-3.1
2022/12/18 03:20:00,24.8,-3.3
2022/12/18 03:30:00,25.5,-3.3
2022/12/18 03:40:00,26.1,-3.4
2022/12/18 03:50:00,26.5,-3.5
2022/12/18 04:00:00,27.1,-3.5
2022/12/18 04:10:00,27.8,-3.5
2022/12/18 04:20:00,28.1,-3.6
2022/12/18 04:30:00,28.4,-3.8
2022/12/18 04:40:00,28.6,-4.0
2022/12/18 04:50:00,28.6,-4.0
2022/12/18 05:00:00,28.6,-4.2
2022/12/18 05:10:00,28.5,-4.2
2022/12/18 05:20:00,28.5,-4.6
2022/12/18 05:30:00,28.7,-4.2
2022/12/18 05:40:00,29.0,-4.3
2022/12/18 05:50:00,29.6,-4.3
2022/12/18 06:00:00,29.6,-4.4
2022/12/18 06:10:00,29.5,-4.4
2022/12/18 06:20:00,29.9,-4.6
2022/12/18 06:30:00,29.8,-4.6
2022/12/18 06:40:00,29.6,-4.5
2022/12/18 06:50:00,29.5,-4.7
2022/12/18 07:00:00,29.2,-4.8
2022/12/18 07:10:00,29.2,-4.5
2022/12/18 07:20:00,29.2,-4.6
2022/12/18 07:30:00,29.3,-4.5
2022/12/18 07:40:00,29.3,-4.8
2022/12/18 07:50:00,29.0,-4.5
2022/12/18 08:00:00,29.1,-4.6
2022/12/18 08:10:00,29.0,-4.6
2022/12/18 08:20:00,28.8,-4.3
2022/12/18 08:30:00,28.7,-4.6
2022/12/18 08:40:00,28.9,-4.3
2022/12/18 08:50:00,28.6,-4.0
2022/12/18 09:00:00,28.4,-3.8
2022/12/18 09:10:00,28.2,-4.1
2022/12/18 09:20:00,28.0,-3.7
2022/12/18 09:30:00,27.8,-4.2
2022/12/18 09:40:00,27.9,-4.3
2022/12/18 09:50:00,28.1,-4.3
2022/12/18 10:00:00,28.2,-4.4
2022/12/18 10:10:00,28.0,-4.0
2022/12/18 10:20:00,27.9,-3.7
2022/12/18 10:30:00,28.0,-3.6
2022/12/18 10:40:00,28.2,-3.7
2022/12/18 10:50:00,28.1,-3.7
2022/12/18 11:00:00,27.9,-4.2
2022/12/18 11:10:00,28.1,-4.5
2022/12/18 11:20:00,28.2,-4.1
2022/12/18 11:30:00,28.2,-4.1
2022/12/18 11:40:00,28.2,-4.1
2022/12/18 11:50:00,28.2,-3.9
2022/12/18 12:00:00,28.8,-4.2
2022/12/18 12:10:00,29.1,-4.1
2022/12/18 12:20:00,29.0,-4.6
2022/12/18 12:30:00,30.1,-4.2
2022/12/18 12:40:00,30.7,-4.0
2022/12/18 12:50:00,31.6,-3.8
2022/12/18 13:00:00,33.2,-3.7
2022/12/18 13:10:00,33.4,-4.1
2022/12/18 13:20:00,34.1,-3.7
2022/12/18 13:30:00,34.4,-3.3
2022/12/18 13:40:00,34.2,-3.4
2022/12/18 13:50:00,33.9,-3.7
2022/12/18 14:00:00,34.7,-4.2
2022/12/18 14:10:00,35.8,-4.2
2022/12/18 14:20:00, 0.0,-3.5
2022/12/18 14:30:00,36.8,-3.7
2022/12/18 14:40:00,36.8,-3.6
2022/12/18 14:50:00,37.2,-3.4
2022/12/18 15:00:00,37.3,-3.3
2022/12/18 15:10:00,37.2,-3.6
2022/12/18 15:20:00,37.5,-3.9
2022/12/18 15:30:00,37.9,-3.7
2022/12/18 15:40:00,38.1,-3.7
2022/12/18 15:50:00,38.2,-3.8
2022/12/18 16:00:00,38.1,-3.9
2022/12/18 16:10:00,38.3,-4.0
2022/12/18 16:20:00,38.6,-4.2
2022/12/18 16:30:00,38.5,-4.2
2022/12/18 23:00:00,26.1,-4.1
2022/12/18 23:10:00,43.5,-4.0
2022/12/18 23:20:00,43.3,-4.4
2022/12/18 23:30:00,43.1,-4.1
2022/12/18 23:40:00,42.9,-4.3
2022/12/18 23:50:00,43.0,-4.3
